{"data":{"norad_id":57182,"intl_designator":"2023-091S","name":"MONITOR-4 (RS57S)","alt_names":[],"object_type":"PAYLOAD","status":"ACTIVE","operator":null,"country":"CIS","launch_date":"2023-06-27","launch_site_code":"VOSTO","launch_vehicle":null,"mission":null,"orbit_class":"UNKNOWN","rcs_meters":null,"size_class":null,"mass_kg":null,"dimensions":null,"purposes":["comms"],"wikipedia_slug":null,"has_3d_model":false,"image_url":null,"decayed_at":null,"tle_current":{"epoch":"2026-09-19T21:20:30.803424Z","epoch_age_seconds":67261,"freshness":"FRESH","line1":"1 57182U 23091S   26262.88924541  .00006977  00000+0  24568-3 0  9993","line2":"2 57182  97.4980 327.0687 0012452 122.4028 237.8419 15.29560857178769","mean_motion":15.29560857,"eccentricity":0.0012452,"inclination_deg":97.498,"raan_deg":327.0687,"arg_perigee_deg":122.4028,"mean_anomaly_deg":237.8419,"bstar":0.00024568,"rev_number":17876,"period_min":94.144668609286,"perigee_km":468.58792858433,"apogee_km":485.66027082704,"semimajor_km":6855.2610997057,"source":"CELESTRAK","updated_at":"2026-09-20T09:00:45.237878Z"}}}